sat.trackr.live / text

‹ back to catalog

STARLINK-3330

NORAD 50836 · 2022-001AK

PAYLOAD ACTIVE UNKNOWN

§ Identity

Operator
Country
US
Launch date
2022-01-06
Launch site
AFETR
Launch vehicle
Mass (kg)
RCS (m²)

Purposes: comms

External: N2YO · Heavens-Above · Gunter

§ Orbital elements

Epoch: 2026-05-25T03:00:33.151680Z

Period
95.44 min
Inclination
53.2148°
Eccentricity
0.0001186
Mean motion
15.08834766 rev/d
Perigee alt
538.9 km
Apogee alt
540.6 km
Semi-major
6,917.9 km
B*
1.7112e-5
RAAN
195.7648°
Arg perigee
85.5515°
Mean anomaly
274.5613°
Rev number
24,170

§ Raw data

STARLINK-33301 50836U 22001AK  26145.12538370 -.00000016  00000+0  17112-4 0  99972 50836  53.2148 195.7648 0001186  85.5515 274.5613 15.08834766241702

JSON: /api/v1/satellites/50836 · /tle

For live sub-satellite position, see the globe view (requires WebGL).

§ Visibility from observer

Set your observer location to see the next 7 days of passes ≥ 10°. The values pass through the URL so the page stays shareable.

No JS? Fill the form by hand. The geolocation button needs JavaScript.